Time,TemperatureF,DewpointF,PressureIn,WindDirection,WindDirectionDegrees,WindSpeedMPH,WindSpeedGustMPH,Humidity,HourlyPrecipIn,Conditions,Clouds,dailyrainin,SolarRadiationWatts/m^2,SoftwareType,DateUTC
2013-07-14 00:02:00,52.0,49.0,-100.00,NW,312,4.0,6.0,88,0.00,,,0.00,0.000000,,2013-07-14 07:02:00,
2013-07-14 00:11:00,52.0,49.0,-100.00,NW,312,4.0,6.0,88,0.00,,,0.00,0.000000,,2013-07-14 07:11:00,
2013-07-14 00:43:00,51.0,48.0,-100.00,SE,138,0.0,4.0,89,0.00,,,0.00,0.000000,,2013-07-14 07:43:00,
2013-07-14 00:53:00,51.0,48.0,-100.00,SE,138,0.0,4.0,89,0.00,,,0.00,0.000000,,2013-07-14 07:53:00,
2013-07-14 01:01:00,51.0,48.0,-100.00,SE,138,0.0,4.0,89,0.00,,,0.00,0.000000,,2013-07-14 08:01:00,
2013-07-14 01:11:00,51.0,48.0,-100.00,SE,138,0.0,4.0,89,0.00,,,0.00,0.000000,,2013-07-14 08:11:00,
2013-07-14 01:42:00,51.0,49.0,-100.00,NW,309,2.0,4.0,92,0.00,,,0.00,0.000000,,2013-07-14 08:42:00,
2013-07-14 01:53:00,51.0,49.0,-100.00,NW,309,2.0,4.0,92,0.00,,,0.00,0.000000,,2013-07-14 08:53:00,
2013-07-14 02:01:00,51.0,49.0,-100.00,NW,309,2.0,4.0,92,0.00,,,0.00,0.000000,,2013-07-14 09:01:00,
2013-07-14 02:11:00,51.0,49.0,-100.00,NW,309,2.0,4.0,92,0.00,,,0.00,0.000000,,2013-07-14 09:11:00,
2013-07-14 02:42:00,49.0,48.0,-100.00,ESE,113,0.0,4.0,95,0.00,,,0.00,0.000000,,2013-07-14 09:42:00,
2013-07-14 02:53:00,49.0,48.0,-100.00,ESE,113,0.0,4.0,95,0.00,,,0.00,0.000000,,2013-07-14 09:53:00,
2013-07-14 03:01:00,49.0,48.0,-100.00,ESE,113,0.0,4.0,95,0.00,,,0.00,0.000000,,2013-07-14 10:01:00,
2013-07-14 03:11:00,49.0,48.0,-100.00,ESE,113,0.0,4.0,95,0.00,,,0.00,0.000000,,2013-07-14 10:11:00,
2013-07-14 03:42:00,48.0,47.0,-100.00,SSE,167,4.0,5.0,97,0.00,,,0.00,0.000000,,2013-07-14 10:42:00,
2013-07-14 03:53:00,48.0,47.0,-100.00,SSE,167,4.0,5.0,97,0.00,,,0.00,0.000000,,2013-07-14 10:53:00,
2013-07-14 04:01:00,48.0,47.0,-100.00,SSE,167,4.0,5.0,97,0.00,,,0.00,0.000000,,2013-07-14 11:01:00,
2013-07-14 04:11:00,48.0,47.0,-100.00,SSE,167,4.0,5.0,97,0.00,,,0.00,0.000000,,2013-07-14 11:11:00,
2013-07-14 04:43:00,51.0,50.0,-100.00,West,270,1.0,5.0,98,0.00,,,0.00,0.000000,,2013-07-14 11:43:00,
2013-07-14 04:53:00,51.0,50.0,-100.00,West,270,1.0,5.0,98,0.00,,,0.00,0.000000,,2013-07-14 11:53:00,
2013-07-14 05:02:00,51.0,50.0,-100.00,West,270,1.0,5.0,98,0.00,,,0.00,0.000000,,2013-07-14 12:02:00,
2013-07-14 05:11:00,51.0,50.0,-100.00,West,270,1.0,5.0,98,0.00,,,0.00,0.000000,,2013-07-14 12:11:00,
2013-07-14 05:43:00,51.0,49.0,-100.00,WNW,282,0.0,4.0,94,0.00,,,0.00,0.000000,,2013-07-14 12:43:00,
2013-07-14 05:53:00,51.0,49.0,-100.00,WNW,282,0.0,4.0,94,0.00,,,0.00,0.000000,,2013-07-14 12:53:00,
2013-07-14 06:01:00,51.0,49.0,-100.00,WNW,282,0.0,4.0,94,0.00,,,0.00,0.000000,,2013-07-14 13:01:00,
2013-07-14 06:11:00,51.0,49.0,-100.00,WNW,282,0.0,4.0,94,0.00,,,0.00,0.000000,,2013-07-14 13:11:00,
2013-07-14 06:42:00,52.0,50.0,-100.00,WNW,287,3.0,6.0,92,0.00,,,0.00,6.000000,,2013-07-14 13:42:00,
2013-07-14 06:53:00,52.0,50.0,-100.00,WNW,287,3.0,6.0,92,0.00,,,0.00,6.000000,,2013-07-14 13:53:00,
2013-07-14 07:01:00,52.0,50.0,-100.00,WNW,287,3.0,6.0,92,0.00,,,0.00,6.000000,,2013-07-14 14:01:00,
2013-07-14 07:11:00,52.0,50.0,-100.00,WNW,287,3.0,6.0,92,0.00,,,0.00,6.000000,,2013-07-14 14:11:00,
2013-07-14 07:43:00,55.0,50.0,-100.00,WNW,293,4.0,6.0,84,0.00,,,0.00,135.000000,,2013-07-14 14:43:00,
2013-07-14 07:53:00,55.0,50.0,-100.00,WNW,293,4.0,6.0,84,0.00,,,0.00,135.000000,,2013-07-14 14:53:00,
2013-07-14 08:01:00,55.0,50.0,-100.00,WNW,293,4.0,6.0,84,0.00,,,0.00,135.000000,,2013-07-14 15:01:00,
2013-07-14 08:11:00,55.0,50.0,-100.00,WNW,293,4.0,6.0,84,0.00,,,0.00,135.000000,,2013-07-14 15:11:00,
2013-07-14 08:32:00,56.0,50.0,-100.00,WNW,294,5.0,6.0,81,0.00,,,0.00,334.000000,,2013-07-14 15:32:00,
2013-07-14 08:42:00,56.0,50.0,-100.00,WNW,294,5.0,6.0,81,0.00,,,0.00,334.000000,,2013-07-14 15:42:00,
2013-07-14 08:53:00,56.0,50.0,-100.00,WNW,294,5.0,6.0,81,0.00,,,0.00,334.000000,,2013-07-14 15:53:00,
2013-07-14 09:01:00,56.0,50.0,-100.00,WNW,294,5.0,6.0,81,0.00,,,0.00,334.000000,,2013-07-14 16:01:00,
2013-07-14 09:11:00,56.0,50.0,-100.00,WNW,294,5.0,6.0,81,0.00,,,0.00,334.000000,,2013-07-14 16:11:00,
2013-07-14 09:43:00,58.0,50.0,-100.00,WNW,301,5.0,6.0,75,0.00,,,0.00,533.000000,,2013-07-14 16:43:00,
2013-07-14 09:53:00,58.0,50.0,-100.00,WNW,301,5.0,6.0,75,0.00,,,0.00,533.000000,,2013-07-14 16:53:00,
2013-07-14 10:02:00,58.0,50.0,-100.00,WNW,301,5.0,6.0,75,0.00,,,0.00,533.000000,,2013-07-14 17:02:00,
2013-07-14 10:11:00,58.0,50.0,-100.00,WNW,301,5.0,6.0,75,0.00,,,0.00,533.000000,,2013-07-14 17:11:00,
2013-07-14 10:43:00,62.0,51.0,-100.00,WNW,303,7.0,9.0,67,0.00,,,0.00,732.000000,,2013-07-14 17:43:00,
2013-07-14 10:53:00,62.0,51.0,-100.00,WNW,303,7.0,9.0,67,0.00,,,0.00,732.000000,,2013-07-14 17:53:00,
2013-07-14 11:01:00,62.0,51.0,-100.00,WNW,303,7.0,9.0,67,0.00,,,0.00,732.000000,,2013-07-14 18:01:00,
2013-07-14 11:11:00,62.0,51.0,-100.00,WNW,303,7.0,9.0,67,0.00,,,0.00,732.000000,,2013-07-14 18:11:00,
2013-07-14 11:42:00,69.0,54.0,-100.00,NNW,330,7.0,15.0,59,0.00,,,0.00,899.000000,,2013-07-14 18:42:00,
2013-07-14 11:52:00,69.0,54.0,-100.00,NNW,330,7.0,15.0,59,0.00,,,0.00,899.000000,,2013-07-14 18:52:00,
2013-07-14 12:01:00,69.0,54.0,-100.00,NNW,330,7.0,15.0,59,0.00,,,0.00,899.000000,,2013-07-14 19:01:00,
2013-07-14 12:11:00,69.0,54.0,-100.00,NNW,330,7.0,15.0,59,0.00,,,0.00,899.000000,,2013-07-14 19:11:00,
2013-07-14 12:43:00,72.0,53.0,-100.00,NNW,346,8.0,14.0,52,0.00,,,0.00,1011.000000,,2013-07-14 19:43:00,
2013-07-14 12:53:00,72.0,53.0,-100.00,NNW,346,8.0,14.0,52,0.00,,,0.00,1011.000000,,2013-07-14 19:53:00,
2013-07-14 13:01:00,72.0,53.0,-100.00,NNW,346,8.0,14.0,52,0.00,,,0.00,1011.000000,,2013-07-14 20:01:00,
2013-07-14 13:11:00,72.0,53.0,-100.00,NNW,346,8.0,14.0,52,0.00,,,0.00,1011.000000,,2013-07-14 20:11:00,
2013-07-14 13:43:00,73.0,53.0,-100.00,NW,316,12.0,19.0,50,0.00,,,0.00,1192.000000,,2013-07-14 20:43:00,
2013-07-14 13:53:00,73.0,53.0,-100.00,NW,316,12.0,19.0,50,0.00,,,0.00,1192.000000,,2013-07-14 20:53:00,
2013-07-14 14:01:00,73.0,53.0,-100.00,NW,316,12.0,19.0,50,0.00,,,0.00,1192.000000,,2013-07-14 21:01:00,
2013-07-14 14:11:00,73.0,53.0,-100.00,NW,316,12.0,19.0,50,0.00,,,0.00,1192.000000,,2013-07-14 21:11:00,
2013-07-14 14:43:00,74.0,52.0,-100.00,NNW,337,9.0,19.0,46,0.00,,,0.00,1115.000000,,2013-07-14 21:43:00,
2013-07-14 14:52:00,74.0,52.0,-100.00,NNW,337,9.0,19.0,46,0.00,,,0.00,1115.000000,,2013-07-14 21:52:00,
2013-07-14 15:01:00,74.0,52.0,-100.00,NNW,337,9.0,19.0,46,0.00,,,0.00,1115.000000,,2013-07-14 22:01:00,
2013-07-14 15:11:00,74.0,52.0,-100.00,NNW,337,9.0,19.0,46,0.00,,,0.00,1115.000000,,2013-07-14 22:11:00,
2013-07-14 15:32:00,74.0,51.0,-100.00,NNW,345,8.0,17.0,45,0.00,,,0.00,1048.000000,,2013-07-14 22:32:00,
2013-07-14 15:42:00,74.0,51.0,-100.00,NNW,345,8.0,17.0,45,0.00,,,0.00,1048.000000,,2013-07-14 22:42:00,
2013-07-14 15:53:00,74.0,51.0,-100.00,NNW,345,8.0,17.0,45,0.00,,,0.00,1048.000000,,2013-07-14 22:53:00,
2013-07-14 16:01:00,74.0,51.0,-100.00,NNW,345,8.0,17.0,45,0.00,,,0.00,1048.000000,,2013-07-14 23:01:00,
2013-07-14 16:11:00,74.0,51.0,-100.00,NNW,345,8.0,17.0,45,0.00,,,0.00,1048.000000,,2013-07-14 23:11:00,
2013-07-14 16:42:00,73.0,51.0,-100.00,NNW,339,8.0,17.0,46,0.00,,,0.00,950.000000,,2013-07-14 23:42:00,
2013-07-14 16:53:00,73.0,51.0,-100.00,NNW,339,8.0,17.0,46,0.00,,,0.00,950.000000,,2013-07-14 23:53:00,
2013-07-14 17:02:00,73.0,51.0,-100.00,NNW,339,8.0,17.0,46,0.00,,,0.00,950.000000,,2013-07-15 00:02:00,
2013-07-14 17:11:00,73.0,51.0,-100.00,NNW,339,8.0,17.0,46,0.00,,,0.00,950.000000,,2013-07-15 00:11:00,
2013-07-14 18:32:00,68.0,46.0,-100.00,NW,316,16.0,23.0,46,-99.99,,,0.00,621.000000,,2013-07-15 01:32:00,
2013-07-14 18:43:00,68.0,46.0,-100.00,NW,316,16.0,23.0,46,-99.99,,,0.00,621.000000,,2013-07-15 01:43:00,
2013-07-14 18:53:00,68.0,46.0,-100.00,NW,316,16.0,23.0,46,-99.99,,,0.00,621.000000,,2013-07-15 01:53:00,
2013-07-14 19:02:00,68.0,46.0,-100.00,NW,316,16.0,23.0,46,-99.99,,,0.00,621.000000,,2013-07-15 02:02:00,
2013-07-14 19:11:00,68.0,46.0,-100.00,NW,316,16.0,23.0,46,-99.99,,,0.00,621.000000,,2013-07-15 02:11:00,
2013-07-14 19:42:00,65.0,46.0,-100.00,NW,325,12.0,20.0,51,0.00,,,0.00,416.000000,,2013-07-15 02:42:00,
2013-07-14 19:53:00,65.0,46.0,-100.00,NW,325,12.0,20.0,51,0.00,,,0.00,416.000000,,2013-07-15 02:53:00,
2013-07-14 20:02:00,65.0,46.0,-100.00,NW,325,12.0,20.0,51,0.00,,,0.00,416.000000,,2013-07-15 03:02:00,
2013-07-14 20:11:00,65.0,46.0,-100.00,NW,325,12.0,20.0,51,0.00,,,0.00,416.000000,,2013-07-15 03:11:00,
2013-07-14 20:43:00,61.0,46.0,-100.00,NW,312,10.0,16.0,58,0.00,,,0.00,208.000000,,2013-07-15 03:43:00,
2013-07-14 20:53:00,61.0,46.0,-100.00,NW,312,10.0,16.0,58,0.00,,,0.00,208.000000,,2013-07-15 03:53:00,
2013-07-14 21:01:00,61.0,46.0,-100.00,NW,312,10.0,16.0,58,0.00,,,0.00,208.000000,,2013-07-15 04:01:00,
2013-07-14 21:11:00,61.0,46.0,-100.00,NW,312,10.0,16.0,58,0.00,,,0.00,208.000000,,2013-07-15 04:11:00,
2013-07-14 21:33:00,55.0,45.0,-100.00,NW,323,8.0,12.0,68,0.00,,,0.00,33.000000,,2013-07-15 04:33:00,
2013-07-14 21:42:00,55.0,45.0,-100.00,NW,323,8.0,12.0,68,0.00,,,0.00,33.000000,,2013-07-15 04:42:00,
2013-07-14 21:53:00,55.0,45.0,-100.00,NW,323,8.0,12.0,68,0.00,,,0.00,33.000000,,2013-07-15 04:53:00,
2013-07-14 22:02:00,55.0,45.0,-100.00,NW,323,8.0,12.0,68,0.00,,,0.00,33.000000,,2013-07-15 05:02:00,
2013-07-14 22:11:00,55.0,45.0,-100.00,NW,323,8.0,12.0,68,0.00,,,0.00,33.000000,,2013-07-15 05:11:00,
2013-07-14 22:43:00,52.0,45.0,-100.00,NW,325,8.0,10.0,76,0.00,,,0.00,0.000000,,2013-07-15 05:43:00,
2013-07-14 22:53:00,52.0,45.0,-100.00,NW,325,8.0,10.0,76,0.00,,,0.00,0.000000,,2013-07-15 05:53:00,
2013-07-14 23:02:00,52.0,45.0,-100.00,NW,325,8.0,10.0,76,0.00,,,0.00,0.000000,,2013-07-15 06:02:00,
2013-07-14 23:11:00,52.0,45.0,-100.00,NW,325,8.0,10.0,76,0.00,,,0.00,0.000000,,2013-07-15 06:11:00,
2013-07-14 23:42:00,51.0,46.0,-100.00,NNW,331,6.0,9.0,84,0.00,,,0.00,0.000000,,2013-07-15 06:42:00,
2013-07-14 23:53:00,51.0,46.0,-100.00,NNW,331,6.0,9.0,84,0.00,,,0.00,0.000000,,2013-07-15 06:53:00,